| time (UTC) | temp F | wind direction | speed MPH | gust MPH | rain 1hr in | rain 24hr in | rain mn in | humidity % | barometer mb |
| 20260506044535 | 60 | 289 | 1.0 | 5.0 | 0.00 | 0.00 | 0.00 | 72 | 1015.4 |
| 20260506043029 | 61 | 277 | 2.0 | 11.0 | 0.00 | 0.00 | 0.00 | 71 | 1015.3 |
| 20260506041530 | 61 | 267 | 2.0 | 8.0 | 0.00 | 0.00 | 0.00 | 70 | 1015.1 |
| 20260506040041 | 62 | 259 | 1.0 | 7.0 | 0.00 | 0.00 | 0.00 | 70 | 1014.9 |
| 20260506034532 | 62 | 255 | 2.0 | 11.0 | 0.00 | 0.00 | 0.00 | 69 | 1014.5 |
| 20260506033035 | 62 | 257 | 2.0 | 9.0 | 0.00 | 0.00 | 0.00 | 68 | 1014.3 |
| 20260506024536 | 65 | 248 | 3.0 | 13.0 | 0.00 | 0.00 | 0.00 | 64 | 1013.7 |
| 20260506023034 | 66 | 250 | 3.0 | 10.0 | 0.00 | 0.00 | 0.00 | 62 | 1013.6 |
| 20260506021644 | 67 | 254 | 2.0 | 7.0 | 0.00 | 0.00 | 0.00 | 61 | 1013.6 |
| 20260506020031 | 68 | 277 | 2.0 | 8.0 | 0.00 | 0.00 | 0.00 | 59 | 1013.6 |
| 20260506013034 | 70 | 239 | 1.0 | 5.0 | 0.00 | 0.00 | 0.00 | 55 | 1013.4 |
| 20260506011532 | 72 | 250 | 2.0 | 8.0 | 0.00 | 0.00 | 0.00 | 52 | 1013.3 |
| 20260506010034 | 73 | 249 | 2.0 | 9.0 | 0.00 | 0.00 | 0.00 | 52 | 1013.3 |
| 20260506004535 | 74 | 247 | 4.0 | 10.0 | 0.00 | 0.00 | 0.00 | 51 | 1013.3 |
| 20260506003030 | 75 | 251 | 3.0 | 10.0 | 0.00 | 0.00 | 0.00 | 50 | 1013.2 |
| 20260506001538 | 76 | 253 | 3.0 | 9.0 | 0.00 | 0.00 | 0.00 | 49 | 1013.2 |
| 20260506000032 | 77 | 255 | 3.0 | 8.0 | 0.00 | 0.00 | 0.00 | 49 | 1013.4 |
| 20260505234535 | 76 | 241 | 2.0 | 8.0 | 0.00 | 0.00 | 0.00 | 51 | 1013.4 |
| 20260505231536 | 76 | 278 | 2.0 | 9.0 | 0.00 | 0.00 | 0.00 | 50 | 1013.6 |
| 20260505230030 | 76 | 278 | 2.0 | 7.0 | 0.00 | 0.00 | 0.00 | 50 | 1013.7 |
| 20260505224532 | 76 | 267 | 2.0 | 7.0 | 0.00 | 0.00 | 0.00 | 50 | 1013.8 |
| 20260505223143 | 77 | 294 | 2.0 | 9.0 | 0.00 | 0.00 | 0.00 | 49 | 1013.9 |
| 20260505221532 | 78 | 238 | 2.0 | 7.0 | 0.00 | 0.00 | 0.00 | 49 | 1014.1 |
| 20260505214534 | 75 | 283 | 3.0 | 11.0 | 0.00 | 0.00 | 0.00 | 52 | 1014.3 |
| 20260505211531 | 75 | 283 | 3.0 | 9.0 | 0.00 | 0.00 | 0.00 | 51 | 1014.5 |
| 20260505210044 | 74 | 273 | 2.0 | 9.0 | 0.00 | 0.00 | 0.00 | 52 | 1014.7 |
| 20260505210036 | 74 | 270 | 3.0 | 12.0 | 0.00 | 0.00 | 0.00 | 51 | 1014.8 |
| 20260505203034 | 73 | 268 | 2.0 | 8.0 | 0.00 | 0.00 | 0.00 | 52 | 1014.9 |
| 20260505201534 | 73 | 267 | 3.0 | 12.0 | 0.00 | 0.00 | 0.00 | 52 | 1015.0 |
| 20260505200028 | 73 | 263 | 3.0 | 10.0 | 0.00 | 0.00 | 0.00 | 54 | 1015.0 |
| 20260505194531 | 72 | 274 | 3.0 | 13.0 | 0.00 | 0.00 | 0.00 | 54 | 1015.2 |
| 20260505193035 | 72 | 261 | 3.0 | 11.0 | 0.00 | 0.00 | 0.00 | 54 | 1015.3 |
| 20260505190034 | 71 | 258 | 3.0 | 7.0 | 0.00 | 0.00 | 0.00 | 56 | 1015.4 |
| 20260505184609 | 70 | 265 | 2.0 | 9.0 | 0.00 | 0.00 | 0.00 | 57 | 1015.5 |
| 20260505183030 | 70 | 261 | 3.0 | 11.0 | 0.00 | 0.00 | 0.00 | 56 | 1015.6 |
| 20260505181536 | 69 | 256 | 3.0 | 9.0 | 0.00 | 0.00 | 0.00 | 58 | 1015.6 |
| 20260505180030 | 68 | 248 | 3.0 | 11.0 | 0.00 | 0.00 | 0.00 | 59 | 1015.6 |
| 20260505173035 | 67 | 241 | 4.0 | 12.0 | 0.00 | 0.00 | 0.00 | 60 | 1015.6 |
| 20260505170029 | 66 | 238 | 4.0 | 11.0 | 0.00 | 0.00 | 0.00 | 62 | 1015.6 |
| 20260505163031 | 64 | 236 | 4.0 | 12.0 | 0.00 | 0.00 | 0.00 | 65 | 1015.6 |
| 20260505161609 | 64 | 234 | 4.0 | 13.0 | 0.00 | 0.00 | 0.00 | 66 | 1015.6 |
| 20260505153143 | 62 | 236 | 3.0 | 9.0 | 0.00 | 0.00 | 0.00 | 70 | 1015.3 |
| 20260505124530 | 57 | 235 | 4.0 | 10.0 | 0.00 | 0.00 | 0.00 | 79 | 1014.1 |
| 20260505123137 | 57 | 236 | 2.0 | 10.0 | 0.00 | 0.00 | 0.00 | 79 | 1013.9 |
| 20260505121535 | 57 | 238 | 3.0 | 7.0 | 0.00 | 0.00 | 0.00 | 79 | 1013.8 |
| 20260505120032 | 57 | 242 | 1.0 | 7.0 | 0.00 | 0.00 | 0.00 | 78 | 1013.7 |
| 20260505114532 | 58 | 254 | 2.0 | 7.0 | 0.00 | 0.00 | 0.00 | 77 | 1013.7 |
| 20260505113142 | 58 | 267 | 3.0 | 14.0 | 0.00 | 0.00 | 0.00 | 77 | 1013.6 |
| 20260505111537 | 58 | 261 | 2.0 | 9.0 | 0.00 | 0.00 | 0.00 | 77 | 1013.6 |
| 20260505101536 | 59 | 254 | 2.0 | 9.0 | 0.00 | 0.00 | 0.00 | 76 | 1013.2 |
| 20260505100033 | 59 | 243 | 3.0 | 11.0 | 0.00 | 0.00 | 0.00 | 76 | 1013.1 |
| 20260505094531 | 60 | 258 | 2.0 | 9.0 | 0.00 | 0.00 | 0.00 | 76 | 1013.0 |
| 20260505093144 | 60 | 249 | 1.0 | 7.0 | 0.00 | 0.00 | 0.00 | 75 | 1013.0 |
| 20260505091536 | 61 | 241 | 3.0 | 10.0 | 0.00 | 0.00 | 0.00 | 74 | 1012.8 |
| 20260505090036 | 61 | 248 | 3.0 | 9.0 | 0.00 | 0.00 | 0.00 | 74 | 1012.6 |
| 20260505083230 | 0 | 0 | 0.0 | 0.0 | 0.00 | 0.00 | 0.00 | 100 | |
| 20260505080036 | 63 | 252 | 1.0 | 6.0 | 0.00 | 0.00 | 0.00 | 73 | 1012.3 |
| 20260505074533 | 63 | 262 | 1.0 | 5.0 | 0.00 | 0.00 | 0.00 | 72 | 1012.2 |
| 20260505073031 | 63 | 252 | 1.0 | 7.0 | 0.00 | 0.00 | 0.00 | 72 | 1012.1 |
| 20260505071533 | 63 | 246 | 2.0 | 7.0 | 0.00 | 0.00 | 0.00 | 71 | 1011.9 |
| 20260505070036 | 64 | 298 | 1.0 | 6.0 | 0.00 | 0.00 | 0.00 | 69 | 1011.8 |
| 20260505064533 | 64 | 258 | 1.0 | 6.0 | 0.00 | 0.00 | 0.00 | 69 | 1011.6 |
| 20260505063030 | 64 | 251 | 0.0 | 4.0 | 0.00 | 0.00 | 0.00 | 69 | 1011.5 |
| 20260505061533 | 64 | 255 | 1.0 | 7.0 | 0.00 | 0.00 | 0.00 | 68 | 1011.5 |
| 20260505060035 | 64 | 245 | 1.0 | 5.0 | 0.00 | 0.00 | 0.00 | 67 | 1011.5 |
| 20260505054641 | 64 | 245 | 0.0 | 4.0 | 0.00 | 0.00 | 0.00 | 67 | 1011.6 |
| 20260505053037 | 64 | 236 | 1.0 | 5.0 | 0.00 | 0.00 | 0.00 | 67 | 1011.5 |